Location: Elstree
(51.6403°N, 0.2969°W)
Time: 21:43:18
(UTC+00:00)

Terra - Pass Details

Date: 17 June 2021
Orbit: 701 x 703 km, 98.2° (Epoch: 24 July)

Event Time Altitude Azimuth Distance (km) Brightness Sun altitude
Exits shadow 23:27:56 - 229° (SW) 2,692 4.5 -14.6°
Reaches altitude 10° 23:30:18 10° 251° (WSW) 2,174 4.2 -14.6°
Maximum altitude 23:32:13 12° 275° (W) 2,023 4.3 -14.7°
Drops below altitude 10° 23:34:09 10° 299° (WNW) 2,181 4.8 -14.7°
Sets 23:37:54 0° 329° (NNW) 3,106 6.4 -14.8°
